Location: Br�ttisellen
(47.4227°N, 8.6287°E)
Time: 11:03:12
(UTC+00:00)

CZ-2C R/B - Pass Details

Date: 09 April 2020
Orbit: 785 x 870 km, 98.3° (Epoch: 25 May)

Event Time Altitude Azimuth Distance (km) Brightness Sun altitude
Rises 20:57:08 0° 5° (N) 3,289 6.4 -25.4°
Reaches altitude 10° 20:59:43 10° 354° (N) 2,356 5.7 -25.7°
Maximum altitude 21:04:04 28° 297° (WNW) 1,440 4.5 -26.2°
Drops below altitude 10° 21:08:27 10° 239° (WSW) 2,359 5.1 -26.7°
Sets 21:11:03 0° 228° (SW) 3,293 5.8 -27.0°
